KF5JED-13 Weather Reports


time (UTC)temp
C
wind
direction
speed
KPH
gust
KPH
rain 1hr
cm
rain 24hr
cm
rain mn
cm
humidity
%
barometer
mb
20260503192808 24 199 30.6 35.4 0.00 0.00 0.00 26 1016.1
20260503192305 23 216 22.5 40.2 0.00 0.00 0.00 28 1016.1
20260503191800 23 207 22.5 35.4 0.00 0.00 0.00 27 1016.5
20260503191258 23 232 27.4 45.1 0.00 0.00 0.00 27 1016.5
20260503190754 23 217 20.9 40.2 0.00 0.00 0.00 27 1016.2
20260503190251 23 217 24.1 33.8 0.00 0.00 0.00 29 1016.5
20260503185748 23 225 29.0 37.0 0.00 0.00 0.00 27 1016.7
20260503185244 23 228 27.4 37.0 0.00 0.00 0.00 27 1016.8
20260503184738 23 224 14.5 35.4 0.00 0.00 0.00 27 1016.7
20260503184235 23 208 27.4 43.5 0.00 0.00 0.00 26 1016.9
20260503183731 23 215 33.8 45.1 0.00 0.00 0.00 28 1017.1
20260503183229 23 192 29.0 48.3 0.00 0.00 0.00 29 1017.0
20260503182726 23 229 25.7 33.8 0.00 0.00 0.00 29 1017.5
20260503182225 22 211 29.0 41.8 0.00 0.00 0.00 30 1017.2
20260503181721 23 220 22.5 29.0 0.00 0.00 0.00 28 1017.6
20260503181218 23 224 25.7 32.2 0.00 0.00 0.00 28 1017.5
20260503180715 23 209 27.4 37.0 0.00 0.00 0.00 28 1017.7
20260503180213 22 224 20.9 33.8 0.00 0.00 0.00 29 1017.7
20260503175710 22 218 16.1 40.2 0.00 0.00 0.00 29 1017.7
20260503175208 22 213 24.1 33.8 0.00 0.00 0.00 29 1017.8
20260503174703 22 203 22.5 38.6 0.00 0.00 0.00 31 1017.9
20260503174201 22 223 29.0 33.8 0.00 0.00 0.00 30 1018.0
20260503173656 21 216 25.7 33.8 0.00 0.00 0.00 32 1018.0
20260503173152 21 230 30.6 45.1 0.00 0.00 0.00 31 1018.1
20260503172649 21 229 22.5 38.6 0.00 0.00 0.00 32 1018.4
20260503172147 21 205 25.7 37.0 0.00 0.00 0.00 30 1018.5
20260503171643 21 203 24.1 37.0 0.00 0.00 0.00 33 1018.7
20260503171141 21 223 19.3 45.1 0.00 0.00 0.00 32 1018.5
20260503170637 21 208 17.7 33.8 0.00 0.00 0.00 33 1018.7
20260503170134 21 210 33.8 40.2 0.00 0.00 0.00 32 1018.9
20260503150526 17 229 19.3 33.8 0.00 0.00 0.00 47 1019.8
20260503131419 10 211 9.7 14.5 0.00 0.00 0.00 69 1020.4
20260503130915 10 220 6.4 12.9 0.00 0.00 0.00 71 1020.1
20260503130413 10 216 9.7 24.1 0.00 0.00 0.00 71 1020.2
20260503110812 8 229 3.2 11.3 0.00 0.00 0.00 76 1019.6
20260503110309 7 192 3.2 4.8 0.00 0.00 0.00 76 1019.6
20260503100235 10 224 3.2 17.7 0.00 0.00 0.00 70 1020.0
20260503090154 10 239 9.7 14.5 0.00 0.00 0.00 63 1019.7
20260503081629 10 220 4.8 17.7 0.00 0.00 0.00 58 1019.9
20260503081126 11 211 8.0 20.9 0.00 0.00 0.00 58 1019.9
20260503080622 11 236 8.0 22.5 0.00 0.00 0.00 57 1019.8
20260503080119 11 226 17.7 20.9 0.00 0.00 0.00 56 1019.8
20260503072556 11 223 9.7 14.5 0.00 0.00 0.00 53 1020.1
20260503072054 11 214 6.4 17.7 0.00 0.00 0.00 52 1020.1
20260503071550 10 206 11.3 14.5 0.00 0.00 0.00 52 1020.2
20260503071047 10 191 6.4 8.0 0.00 0.00 0.00 51 1020.2
20260503070543 10 197 6.4 9.7 0.00 0.00 0.00 51 1020.2
20260503055003 10 212 4.8 6.4 0.00 0.00 0.00 47 1020.1
20260503054458 10 184 6.4 8.0 0.00 0.00 0.00 46 1020.1
20260503053956 10 177 4.8 4.8 0.00 0.00 0.00 45 1020.0
20260503053454 10 183 3.2 4.8 0.00 0.00 0.00 46 1020.2
20260503052950 10 177 3.2 6.4 0.00 0.00 0.00 46 1020.1
20260503052448 10 180 4.8 6.4 0.00 0.00 0.00 45 1020.0
20260503051944 11 180 4.8 6.4 0.00 0.00 0.00 43 1020.1
20260503051440 11 192 3.2 4.8 0.00 0.00 0.00 42 1020.2
20260503050938 11 187 4.8 6.4 0.00 0.00 0.00 43 1020.0
20260503050433 11 192 6.4 8.0 0.00 0.00 0.00 42 1020.1
20260503045931 11 193 1.6 6.4 0.00 0.00 0.00 41 1020.0
20260503045429 11 196 4.8 4.8 0.00 0.00 0.00 41 1020.0
20260503044925 11 208 4.8 6.4 0.00 0.00 0.00 41 1020.0
20260503044422 11 205 4.8 6.4 0.00 0.00 0.00 40 1020.1
20260503043920 11 177 1.6 3.2 0.00 0.00 0.00 41 1020.1
20260503043416 11 184 6.4 6.4 0.00 0.00 0.00 40 1020.0
20260503042912 11 186 3.2 4.8 0.00 0.00 0.00 41 1019.9
20260503042409 10 173 1.6 6.4 0.00 0.00 0.00 41 1020.1
20260503041905 9 150 3.2 4.8 0.00 0.00 0.00 42 1020.0
20260503041402 9 159 3.2 4.8 0.00 0.00 0.00 42 1020.0
20260503040900 9 167 3.2 4.8 0.00 0.00 0.00 42 1020.0
20260503040357 8 142 3.2 4.8 0.00 0.00 0.00 43 1020.1
20260503035854 8 146 4.8 4.8 0.00 0.00 0.00 41 1020.1
20260503035351 9 144 4.8 4.8 0.00 0.00 0.00 41 1019.9
20260503034848 8 162 3.2 4.8 0.00 0.00 0.00 41 1020.1
20260503034346 8 153 4.8 4.8 0.00 0.00 0.00 41 1020.1
20260503033843 9 142 3.2 4.8 0.00 0.00 0.00 40 1020.1
20260503033340 9 161 4.8 4.8 0.00 0.00 0.00 40 1020.0
20260503032838 9 136 3.2 4.8 0.00 0.00 0.00 38 1020.0
20260503032337 10 152 4.8 4.8 0.00 0.00 0.00 38 1020.0
20260503031834 10 141 3.2 4.8 0.00 0.00 0.00 36 1019.9
20260503031332 11 145 3.2 3.2 0.00 0.00 0.00 35 1019.9
20260503030828 12 139 3.2 4.8 0.00 0.00 0.00 35 1019.9
20260503030324 12 159 3.2 3.2 0.00 0.00 0.00 34 1019.8
20260503025821 12 154 1.6 3.2 0.00 0.00 0.00 34 1019.7
20260503025319 12 148 3.2 4.8 0.00 0.00 0.00 33 1019.7
20260503024815 13 153 4.8 4.8 0.00 0.00 0.00 32 1019.7
20260503024312 13 145 3.2 4.8 0.00 0.00 0.00 32 1019.8
20260503023809 13 133 3.2 3.2 0.00 0.00 0.00 32 1019.7
20260503023307 14 143 4.8 4.8 0.00 0.00 0.00 31 1019.7
20260503022803 13 136 3.2 3.2 0.00 0.00 0.00 31 1019.5
20260503022304 14 138 3.2 4.8 0.00 0.00 0.00 32 1019.7
20260503021759 14 134 3.2 4.8 0.00 0.00 0.00 30 1019.6
20260503021255 16 149 4.8 8.0 0.00 0.00 0.00 29 1019.5
20260503020753 16 132 3.2 3.2 0.00 0.00 0.00 29 1019.5
20260503020251 16 134 3.2 3.2 0.00 0.00 0.00 29 1019.6
20260503015747 16 149 3.2 3.2 0.00 0.00 0.00 28 1019.2
20260503015244 17 137 3.2 3.2 0.00 0.00 0.00 28 1019.5
20260503014740 17 181 0.0 3.2 0.00 0.00 0.00 27 1019.1
20260503014238 17 208 1.6 3.2 0.00 0.00 0.00 28 1019.4
20260503013735 17 198 0.0 3.2 0.00 0.00 0.00 28 1019.1
20260503013233 17 195 3.2 6.4 0.00 0.00 0.00 27 1019.1
20260503012730 17 180 3.2 4.8 0.00 0.00 0.00 27 1019.2
20260503012227 18 187 4.8 6.4 0.00 0.00 0.00 26 1018.8
20260503011724 18 198 4.8 6.4 0.00 0.00 0.00 25 1019.0
20260503011221 19 204 6.4 11.3 0.00 0.00 0.00 24 1019.0
20260503010717 20 200 9.7 12.9 0.00 0.00 0.00 24 1019.0
20260503010214 20 163 3.2 6.4 0.00 0.00 0.00 24 1018.9
20260503005711 20 201 6.4 9.7 0.00 0.00 0.00 23 1019.1
20260503005209 21 204 4.8 8.0 0.00 0.00 0.00 22 1018.9
20260503004704 21 176 4.8 8.0 0.00 0.00 0.00 22 1018.8
20260503004203 21 195 6.4 9.7 0.00 0.00 0.00 21 1018.8
20260503003659 21 145 3.2 6.4 0.00 0.00 0.00 22 1018.8
20260503003156 22 161 9.7 11.3 0.00 0.00 0.00 21 1018.8
20260503002653 22 168 9.7 11.3 0.00 0.00 0.00 21 1018.9
20260503002150 22 203 12.9 14.5 0.00 0.00 0.00 22 1018.8
20260503001646 21 202 8.0 14.5 0.00 0.00 0.00 22 1018.7
20260503001143 22 214 9.7 11.3 0.00 0.00 0.00 21 1018.8
20260503000641 23 226 4.8 9.7 0.00 0.00 0.00 20 1019.0
20260503000138 22 273 3.2 6.4 0.00 0.00 0.00 20 1018.9
20260502235634 22 236 4.8 8.0 0.00 0.00 0.00 20 1019.0
20260502235133 23 348 3.2 6.4 0.00 0.00 0.00 20 1018.8
20260502234628 21 236 4.8 8.0 0.00 0.00 0.00 21 1019.0
20260502234126 21 202 6.4 9.7 0.00 0.00 0.00 21 1018.9
20260502233621 22 39 3.2 6.4 0.00 0.00 0.00 20 1018.8
20260502233118 22 153 14.5 17.7 0.00 0.00 0.00 21 1019.0
20260502232614 22 173 12.9 16.1 0.00 0.00 0.00 21 1018.9
20260502232112 22 185 11.3 16.1 0.00 0.00 0.00 21 1018.9
20260502231608 22 160 11.3 17.7 0.00 0.00 0.00 22 1018.9
20260502231107 21 193 6.4 14.5 0.00 0.00 0.00 22 1018.9
20260502230604 21 231 9.7 11.3 0.00 0.00 0.00 21 1018.9
20260502225558 23 327 1.6 8.0 0.00 0.00 0.00 20 1019.0
20260502225055 23 327 8.0 16.1 0.00 0.00 0.00 20 1018.9
20260502224551 22 217 12.9 14.5 0.00 0.00 0.00 21 1019.1
20260502224048 23 351 6.4 16.1 0.00 0.00 0.00 20 1019.0
20260502223546 23 66 6.4 11.3 0.00 0.00 0.00 21 1019.1
20260502223044 23 356 4.8 9.7 0.00 0.00 0.00 20 1019.0
20260502222541 22 36 4.8 12.9 0.00 0.00 0.00 21 1019.1
20260502222037 23 302 4.8 11.3 0.00 0.00 0.00 21 1019.2
20260502221533 22 324 11.3 12.9 0.00 0.00 0.00 21 1019.2
20260502221031 23 314 17.7 17.7 0.00 0.00 0.00 21 1019.2
20260502220526 23 312 11.3 12.9 0.00 0.00 0.00 20 1019.4
20260502220024 22 51 11.3 14.5 0.00 0.00 0.00 22 1019.4
20260502215521 21 358 11.3 12.9 0.00 0.00 0.00 22 1019.5
20260502215017 21 359 6.4 14.5 0.00 0.00 0.00 21 1019.2
20260502214515 23 326 11.3 12.9 0.00 0.00 0.00 20 1019.6
20260502214012 22 327 4.8 11.3 0.00 0.00 0.00 21 1019.7
20260502213508 22 315 9.7 19.3 0.00 0.00 0.00 21 1019.6
20260502213007 22 315 9.7 11.3 0.00 0.00 0.00 20 1019.9
20260502212505 22 228 3.2 11.3 0.00 0.00 0.00 21 1019.8
20260502212002 22 212 12.9 19.3 0.00 0.00 0.00 21 1019.8
20260502211457 22 258 8.0 11.3 0.00 0.00 0.00 22 1019.9
20260502210955 22 219 16.1 19.3 0.00 0.00 0.00 21 1020.1
20260502210452 22 224 8.0 16.1 0.00 0.00 0.00 23 1020.2
20260502205949 22 204 9.7 17.7 0.00 0.00 0.00 21 1020.1
20260502205445 22 115 3.2 8.0 0.00 0.00 0.00 21 1020.0
20260502204942 22 258 3.2 9.7 0.00 0.00 0.00 21 1020.2
20260502204439 21 257 6.4 8.0 0.00 0.00 0.00 23 1020.5
20260502203937 21 211 14.5 24.1 0.00 0.00 0.00 23 1020.2
20260502203434 22 235 11.3 19.3 0.00 0.00 0.00 22 1020.6
20260502202930 23 284 4.8 16.1 0.00 0.00 0.00 22 1020.5
20260502202427 21 172 1.6 9.7 0.00 0.00 0.00 22 1020.4
20260502201925 21 232 14.5 22.5 0.00 0.00 0.00 22 1020.6
20260502201421 22 216 9.7 11.3 0.00 0.00 0.00 22 1020.6
20260502200918 22 154 11.3 14.5 0.00 0.00 0.00 21 1020.7
20260502200414 22 150 11.3 17.7 0.00 0.00 0.00 21 1020.6
20260502195912 21 249 6.4 17.7 0.00 0.00 0.00 23 1020.6
20260502195408 22 202 24.1 33.8 0.00 0.00 0.00 22 1020.7
20260502194905 21 201 12.9 16.1 0.00 0.00 0.00 22 1020.7
20260502194402 22 245 9.7 19.3 0.00 0.00 0.00 23 1020.7
20260502193857 21 189 9.7 14.5 0.00 0.00 0.00 22 1020.9
20260502193355 21 228 4.8 8.0 0.00 0.00 0.00 23 1020.7